DW1345 Weather Reports


time (UTC)temp
C
wind
direction
speed
KPH
gust
KPH
rain 1hr
cm
rain 24hr
cm
rain mn
cm
humidity
%
barometer
mb
20260902001544 6 228 0.0 0.0 0.00 0.00 0.00 94 1004.8
20260902000043 6 228 0.0 0.0 0.00 0.00 0.00 94 1004.9
20260901234546 6 230 0.0 0.0 0.00 0.00 0.00 93 1005.0
20260901233038 6 230 0.0 0.0 0.00 0.00 0.00 93 1005.1
20260901231541 7 230 0.0 0.0 0.00 0.00 0.00 93 1005.2
20260901230032 7 230 0.0 0.0 0.00 0.00 0.00 93 1005.3
20260901224530 7 230 0.0 0.0 0.00 0.00 0.00 92 1005.3
20260901223027 8 230 0.0 0.0 0.00 0.00 0.00 92 1005.2
20260901221555 8 230 0.0 0.0 0.00 0.00 0.00 92 1005.4
20260901220036 8 230 0.0 0.0 0.00 0.00 0.00 92 1005.6
20260901214519 9 232 0.0 0.0 0.00 0.00 0.71 92 1005.6
20260901213022 9 232 0.0 0.0 0.00 0.00 0.71 91 1005.7
20260901211516 10 232 0.0 0.0 0.00 0.00 0.71 91 1005.8
20260901210011 10 232 0.0 0.0 0.00 0.00 0.71 91 1005.9
20260901204516 10 232 0.0 0.0 0.00 0.00 0.71 92 1005.9
20260901203010 10 232 0.0 0.0 0.00 0.00 0.71 91 1005.8
20260901201508 10 232 0.0 0.0 0.00 0.00 0.71 91 1005.8
20260901200022 11 232 0.0 0.0 0.00 0.00 0.71 90 1005.9
20260901194508 11 231 0.0 0.0 0.00 0.00 0.71 90 1006.0
20260901193008 11 231 0.0 0.0 0.00 0.00 0.71 89 1006.1
20260901191518 11 231 0.0 0.0 0.00 0.00 0.71 89 1006.0
20260901190007 11 231 0.0 0.0 0.00 0.00 0.71 88 1006.1
20260901184508 11 231 1.6 0.0 0.00 0.00 0.71 88 1006.1
20260901183006 11 223 1.6 0.0 0.00 0.00 0.71 87 1006.2
20260901181506 11 226 1.6 0.0 0.00 0.00 0.71 88 1006.3
20260901180005 11 227 1.6 0.0 0.00 0.00 0.71 88 1006.2
20260901174504 11 242 1.6 0.0 0.00 0.00 0.71 88 1006.3
20260901173003 11 219 3.2 0.0 0.00 0.00 0.71 88 1006.2
20260901171503 11 224 0.0 0.0 0.00 0.00 0.71 89 1006.1
20260901170001 11 223 0.0 0.0 0.00 0.00 0.71 89 1006.1
20260901164502 11 223 3.2 0.0 0.00 0.00 0.71 89 1006.1
20260901163100 11 231 3.2 0.0 0.00 0.00 0.71 89 1006.0
20260901161559 11 227 3.2 0.0 0.00 0.00 0.71 89 1006.1
20260901160115 11 227 4.8 0.0 0.00 0.00 0.71 90 1005.9
20260901154558 11 223 1.6 0.0 0.00 0.00 0.71 91 1006.0
20260901153114 11 225 1.6 0.0 0.00 0.00 0.71 91 1006.0
20260901151557 11 230 1.6 0.0 0.00 0.00 0.71 91 1005.8
20260901150111 11 227 1.6 0.0 0.00 0.00 0.71 91 1005.9
20260901144600 11 232 1.6 0.0 0.00 0.00 0.71 90 1005.9
20260901143113 11 281 1.6 0.0 0.00 0.00 0.69 90 1005.9
20260901141603 11 279 4.8 0.0 0.00 0.00 0.69 90 1005.9
20260901140131 11 298 3.2 0.0 0.00 0.00 0.69 91 1005.8
20260901134554 11 297 3.2 0.0 0.00 0.00 0.69 91 1005.8
20260901133055 11 302 1.6 0.0 0.00 0.00 0.69 91 1005.8
20260901131553 11 307 3.2 0.0 0.00 0.00 0.69 90 1005.8
20260901130052 11 285 4.8 0.0 0.00 0.00 0.69 90 1005.8
20260901124556 11 301 3.2 0.0 0.00 0.00 0.69 90 1005.7
20260901123052 11 315 3.2 0.0 0.00 0.00 0.69 92 1005.7
20260901121553 11 235 1.6 0.0 0.00 0.00 0.69 93 1005.7
20260901120048 11 291 1.6 0.0 0.00 0.00 0.69 94 1005.5
20260901114550 11 293 1.6 0.0 0.00 0.00 0.69 94 1005.5
20260901113046 11 305 1.6 0.0 0.00 0.00 0.69 95 1005.4
20260901111545 11 232 3.2 0.0 0.00 0.00 0.69 95 1005.2
20260901110044 10 225 4.8 0.0 0.00 0.00 0.69 95 1005.2
20260901104545 10 218 6.4 0.0 0.00 0.00 0.69 94 1005.1
20260901103042 10 241 6.4 0.0 0.00 0.00 0.69 94 1005.0
20260901101556 10 227 4.8 0.0 0.00 0.00 0.69 93 1004.8
20260901100046 11 267 3.2 0.0 0.00 0.00 0.69 93 1004.5
20260901094541 11 287 3.2 0.0 0.00 0.00 0.69 93 1004.5
20260901093034 11 220 1.6 0.0 0.00 0.00 0.69 93 1004.2
20260901091548 11 298 3.2 0.0 0.00 0.00 0.69 93 1004.1
20260901090036 11 306 4.8 0.0 0.00 0.00 0.69 93 1004.0
20260901084538 11 291 3.2 0.0 0.00 0.00 0.69 93 1004.0
20260901083039 11 292 4.8 0.0 0.00 0.00 0.69 94 1003.8
20260901081527 11 304 4.8 0.0 0.00 0.00 0.69 94 1003.9
20260901080058 11 296 3.2 0.0 0.00 0.00 0.66 94 1003.6
20260901074523 11 298 1.6 0.0 0.00 0.00 0.66 94 1003.4
20260901073023 11 311 3.2 0.0 0.00 0.00 0.66 94 1003.3
20260901071521 11 302 4.8 0.0 0.00 0.00 0.66 94 1003.2
20260901070028 11 294 4.8 0.0 0.00 0.00 0.66 95 1002.9
20260901064518 11 289 4.8 0.0 0.00 0.00 0.66 95 1002.7
20260901063018 11 219 0.0 0.0 0.00 0.00 0.66 96 1002.5
20260901061517 11 219 0.0 0.0 0.00 0.00 0.66 96 1002.4
20260901060016 11 220 0.0 0.0 0.00 0.00 0.64 96 1002.4
20260901054515 11 229 1.6 0.0 0.00 0.00 0.61 96 1002.2
20260901053017 11 196 1.6 0.0 0.00 0.00 0.58 95 1002.2
20260901051513 11 171 0.0 0.0 0.00 0.00 0.53 95 1002.1
20260901050113 11 171 0.0 0.0 0.00 0.00 0.51 95 1002.1
20260901044513 11 171 0.0 0.0 0.00 0.00 0.48 95 1002.1
20260901043024 11 171 0.0 0.0 0.00 0.00 0.46 95 1002.0
20260901041515 11 171 0.0 0.0 0.00 0.00 0.43 95 1002.1
20260901040012 11 171 0.0 0.0 0.00 0.00 0.41 95 1002.1
20260901034514 11 171 0.0 0.0 0.00 0.00 0.38 95 1002.1
20260901033017 11 171 0.0 0.0 0.00 0.00 0.36 95 1002.1
20260901031509 11 171 0.0 0.0 0.00 0.00 0.33 95 1002.0
20260901030014 11 171 0.0 0.0 0.00 0.00 0.28 95 1002.1
20260901024508 11 171 0.0 0.0 0.00 0.00 0.25 95 1002.0
20260901023007 11 171 0.0 0.0 0.00 0.00 0.23 95 1002.1
20260901021507 11 171 0.0 0.0 0.00 0.00 0.20 95 1002.1
20260901020011 11 171 0.0 0.0 0.00 0.00 0.15 95 1002.2
20260901014505 11 171 0.0 0.0 0.00 0.00 0.15 95 1002.2
20260901013007 11 171 0.0 0.0 0.00 0.00 0.10 95 1002.1
20260901011503 11 171 0.0 0.0 0.00 0.00 0.05 94 1002.1
20260901010002 11 171 0.0 0.0 0.00 0.00 0.05 94 1002.2
20260901004501 11 171 0.0 0.0 0.00 0.00 0.03 95 1002.2
20260901003101 11 171 0.0 0.0 0.00 0.00 0.03 95 1002.2